{"data":{"norad_id":58117,"epoch":"2026-05-25T01:52:37.085664Z","epoch_age_seconds":68025,"freshness":"FRESH","line1":"1 58117U 23161W   26145.07820701  .00001742  00000+0  70948-4 0  9993","line2":"2 58117  53.1596 170.9554 0001031  80.8074 279.3043 15.30194070146117","mean_motion":15.3019407,"eccentricity":0.0001031,"inclination_deg":53.1596,"raan_deg":170.9554,"arg_perigee_deg":80.8074,"mean_anomaly_deg":279.3043,"bstar":7.0948e-5,"rev_number":14611,"period_min":94.105710395283,"perigee_km":474.52619296377,"apogee_km":475.93935781146,"semimajor_km":6853.3697753876,"source":"CELESTRAK","updated_at":"2026-05-25T13:38:18.530348Z"}}